Stündliche Wetter Abryutino

Heute, 25 Juni, Freitag

Zeit Temperatur Niederschläge Wind Luftdruck Luftfeuchtigkeit
00:00 +24°C° 0.1 mm 2 m/S 750 mmHg 82%
01:00 +23°C° 0.1 mm 2 m/S 750 mmHg 83%
02:00 +23°C° 0.1 mm 2 m/S 749 mmHg 84%
03:00 +23°C° 0.1 mm 2 m/S 749 mmHg 84%
04:00 +23°C° 0 mm 1 m/S 749 mmHg 84%
05:00 +24°C° 0 mm 1 m/S 749 mmHg 84%
06:00 +24°C° 0 mm 1 m/S 749 mmHg 83%
07:00 +26°C° 0 mm 1 m/S 749 mmHg 78%
08:00 +27°C° 0 mm 1 m/S 749 mmHg 73%
09:00 +29°C° 0 mm 1 m/S 749 mmHg 68%
10:00 +29°C° 0.2 mm 1 m/S 749 mmHg 65%
11:00 +30°C° 0.2 mm 2 m/S 749 mmHg 61%
12:00 +31°C° 0.2 mm 2 m/S 749 mmHg 57%
13:00 +32°C° 0 mm 2 m/S 749 mmHg 56%
14:00 +32°C° 0 mm 2 m/S 749 mmHg 54%
15:00 +32°C° 0 mm 2 m/S 749 mmHg 53%
16:00 +32°C° 0 mm 2 m/S 748 mmHg 56%
17:00 +32°C° 0 mm 1 m/S 748 mmHg 59%
18:00 +32°C° 0 mm 1 m/S 748 mmHg 63%
19:00 +30°C° 0 mm 2 m/S 747 mmHg 67%
20:00 +28°C° 0 mm 2 m/S 747 mmHg 72%
21:00 +26°C° 0 mm 2 m/S 747 mmHg 76%
22:00 +25°C° 0 mm 2 m/S 747 mmHg 78%
23:00 +24°C° 0 mm 2 m/S 747 mmHg 80%

Morgen, 26 Juni, Samstag

Zeit Temperatur Niederschläge Wind Luftdruck Luftfeuchtigkeit
00:00 +24°C° 0 mm 2 m/S 747 mmHg 82%
01:00 +23°C° 0.1 mm 2 m/S 747 mmHg 84%
02:00 +23°C° 0.1 mm 2 m/S 747 mmHg 86%
03:00 +21°C° 0.1 mm 2 m/S 747 mmHg 88%
04:00 +23°C° 0 mm 2 m/S 747 mmHg 87%
05:00 +23°C° 0 mm 2 m/S 746 mmHg 86%
06:00 +24°C° 0 mm 2 m/S 746 mmHg 86%
07:00 +26°C° 0 mm 2 m/S 746 mmHg 80%
08:00 +27°C° 0 mm 2 m/S 746 mmHg 74%
09:00 +29°C° 0 mm 2 m/S 747 mmHg 69%
10:00 +29°C° 0.6 mm 2 m/S 746 mmHg 67%
11:00 +30°C° 0.6 mm 2 m/S 746 mmHg 65%
12:00 +31°C° 0.6 mm 3 m/S 746 mmHg 63%
13:00 +31°C° 0.4 mm 3 m/S 746 mmHg 62%
14:00 +31°C° 0.4 mm 2 m/S 746 mmHg 61%
15:00 +31°C° 0.4 mm 2 m/S 746 mmHg 60%
16:00 +31°C° 0.3 mm 2 m/S 746 mmHg 64%
17:00 +30°C° 0.3 mm 2 m/S 745 mmHg 69%
18:00 +29°C° 0.3 mm 2 m/S 745 mmHg 73%
19:00 +28°C° 0.1 mm 2 m/S 745 mmHg 76%
20:00 +27°C° 0.1 mm 1 m/S 745 mmHg 78%
21:00 +25°C° 0.1 mm 1 m/S 745 mmHg 81%
22:00 +25°C° 0 mm 1 m/S 745 mmHg 82%
23:00 +24°C° 0 mm 1 m/S 745 mmHg 83%

übermorgen, 27 Juni, Sonntag

Zeit Temperatur Niederschläge Wind Luftdruck Luftfeuchtigkeit
00:00 +23°C° 0 mm 1 m/S 745 mmHg 84%
01:00 +23°C° 0.4 mm 1 m/S 745 mmHg 85%
02:00 +23°C° 0.4 mm 1 m/S 745 mmHg 86%
03:00 +22°C° 0.4 mm 1 m/S 745 mmHg 88%
04:00 +23°C° 0 mm 1 m/S 745 mmHg 86%
05:00 +22°C° 0 mm 0 m/S 745 mmHg 85%
06:00 +23°C° 0 mm 0 m/S 745 mmHg 84%
07:00 +24°C° 0 mm 0 m/S 745 mmHg 79%
08:00 +27°C° 0 mm 1 m/S 745 mmHg 75%
09:00 +29°C° 0 mm 1 m/S 745 mmHg 70%
10:00 +30°C° 0.3 mm 1 m/S 745 mmHg 66%
11:00 +31°C° 0.3 mm 1 m/S 746 mmHg 62%
12:00 +32°C° 0.3 mm 1 m/S 746 mmHg 57%
13:00 +32°C° 0.1 mm 1 m/S 745 mmHg 56%
14:00 +32°C° 0.1 mm 1 m/S 745 mmHg 54%
15:00 +33°C° 0.1 mm 1 m/S 745 mmHg 53%
16:00 +32°C° 0 mm 2 m/S 745 mmHg 57%
17:00 +31°C° 0 mm 2 m/S 745 mmHg 62%
18:00 +31°C° 0 mm 2 m/S 744 mmHg 67%
19:00 +29°C° 0 mm 2 m/S 744 mmHg 70%
20:00 +28°C° 0 mm 2 m/S 744 mmHg 74%
21:00 +27°C° 0 mm 2 m/S 744 mmHg 77%
22:00 +26°C° 0 mm 2 m/S 744 mmHg 79%
23:00 +25°C° 0 mm 2 m/S 744 mmHg 81%

28 Juni, Montag

Zeit Temperatur Niederschläge Wind Luftdruck Luftfeuchtigkeit
00:00 +24°C° 0 mm 2 m/S 744 mmHg 83%
01:00 +24°C° 0.7 mm 2 m/S 743 mmHg 85%
02:00 +23°C° 0.7 mm 2 m/S 743 mmHg 87%
03:00 +23°C° 0.7 mm 2 m/S 743 mmHg 89%
04:00 +23°C° 0.6 mm 2 m/S 743 mmHg 90%
05:00 +23°C° 0.6 mm 2 m/S 743 mmHg 91%
06:00 +24°C° 0.6 mm 2 m/S 743 mmHg 92%
07:00 +25°C° 0 mm 3 m/S 743 mmHg 85%
08:00 +26°C° 0 mm 3 m/S 743 mmHg 77%
09:00 +28°C° 0 mm 4 m/S 743 mmHg 70%
10:00 +28°C° 0 mm 4 m/S 743 mmHg 69%
11:00 +29°C° 0 mm 4 m/S 743 mmHg 67%
12:00 +29°C° 0 mm 5 m/S 743 mmHg 65%
13:00 +30°C° 0 mm 5 m/S 742 mmHg 64%
14:00 +30°C° 0 mm 5 m/S 742 mmHg 63%
15:00 +30°C° 0 mm 5 m/S 742 mmHg 62%
16:00 +30°C° 0.1 mm 5 m/S 742 mmHg 65%
17:00 +30°C° 0.1 mm 5 m/S 741 mmHg 68%
18:00 +29°C° 0.1 mm 5 m/S 741 mmHg 71%
19:00 +28°C° 0.2 mm 4 m/S 741 mmHg 76%
20:00 +26°C° 0.2 mm 3 m/S 740 mmHg 81%
21:00 +25°C° 0.2 mm 3 m/S 740 mmHg 86%
22:00 +24°C° 0 mm 2 m/S 740 mmHg 89%
23:00 +23°C° 0 mm 2 m/S 740 mmHg 91%

29 Juni, Dienstag

Zeit Temperatur Niederschläge Wind Luftdruck Luftfeuchtigkeit
00:00 +23°C° 0 mm 2 m/S 740 mmHg 93%
01:00 +21°C° 0.1 mm 2 m/S 740 mmHg 94%
02:00 +21°C° 0.1 mm 2 m/S 739 mmHg 95%
03:00 +20°C° 0.1 mm 3 m/S 739 mmHg 96%
04:00 +20°C° 0.1 mm 3 m/S 739 mmHg 95%
05:00 +20°C° 0.1 mm 3 m/S 739 mmHg 94%
06:00 +20°C° 0.1 mm 3 m/S 739 mmHg 94%
07:00 +20°C° 0 mm 4 m/S 739 mmHg 90%
08:00 +21°C° 0 mm 4 m/S 739 mmHg 87%
09:00 +21°C° 0 mm 5 m/S 739 mmHg 83%
10:00 +21°C° 0 mm 5 m/S 739 mmHg 84%
11:00 +21°C° 0 mm 5 m/S 740 mmHg 84%
12:00 +21°C° 0 mm 5 m/S 740 mmHg 85%
13:00 +21°C° 0 mm 5 m/S 740 mmHg 84%
14:00 +21°C° 0 mm 5 m/S 740 mmHg 83%
15:00 +21°C° 0 mm 6 m/S 740 mmHg 83%
16:00 +21°C° 0 mm 5 m/S 740 mmHg 82%
17:00 +20°C° 0 mm 5 m/S 740 mmHg 81%
18:00 +20°C° 0 mm 5 m/S 741 mmHg 80%
19:00 +20°C° 0 mm 5 m/S 741 mmHg 81%
20:00 +19°C° 0 mm 5 m/S 741 mmHg 82%
21:00 +17°C° 0 mm 5 m/S 741 mmHg 83%
22:00 +18°C° 0 mm 4 m/S 741 mmHg 87%
23:00 +17°C° 0 mm 4 m/S 740 mmHg 91%

30 Juni, Mittwoch

Zeit Temperatur Niederschläge Wind Luftdruck Luftfeuchtigkeit
00:00 +15°C° 0 mm 4 m/S 740 mmHg 95%
01:00 +14°C° 0 mm 4 m/S 740 mmHg 95%
02:00 +14°C° 0 mm 4 m/S 741 mmHg 96%
03:00 +14°C° 0 mm 4 m/S 741 mmHg 97%
04:00 +14°C° 0 mm 4 m/S 741 mmHg 95%
05:00 +15°C° 0 mm 4 m/S 740 mmHg 93%
06:00 +15°C° 0 mm 4 m/S 740 mmHg 91%
07:00 +16°C° 0 mm 5 m/S 740 mmHg 89%
08:00 +17°C° 0 mm 5 m/S 740 mmHg 86%
09:00 +17°C° 0 mm 5 m/S 740 mmHg 84%
10:00 +19°C° 0.1 mm 6 m/S 740 mmHg 84%
11:00 +19°C° 0.1 mm 6 m/S 741 mmHg 83%
12:00 +19°C° 0.1 mm 6 m/S 741 mmHg 82%
13:00 +19°C° 0.1 mm 5 m/S 741 mmHg 84%
14:00 +19°C° 0.1 mm 5 m/S 741 mmHg 86%
15:00 +19°C° 0.1 mm 4 m/S 741 mmHg 88%
16:00 +18°C° 0 mm 4 m/S 741 mmHg 89%
17:00 +18°C° 0 mm 4 m/S 741 mmHg 90%
18:00 +18°C° 0 mm 4 m/S 741 mmHg 91%
19:00 +18°C° 0 mm 4 m/S 741 mmHg 92%
20:00 +17°C° 0 mm 4 m/S 741 mmHg 92%
21:00 +17°C° 0 mm 3 m/S 742 mmHg 93%
22:00 +17°C° 0 mm 3 m/S 742 mmHg 94%
23:00 +16°C° 0 mm 3 m/S 742 mmHg 95%
Mehr zeigen

Wir brauchen deine Erlaubnis

Meteoprog und unser Service Anbieter werden persönliche Daten aufbewahren, so wie Cookies, Geräte Bezeichnung oder ähnliche Technologien von deinem Gerät und Prozess, so wie Persönliche Daten Inhalte und Werbungen, genauso wie social Media und den Verkehr zu analysieren.

  • Aufbewahrung und/oder Zugang zu deiner Geräte Informationen.

    Cookies, Geräte Bezeichnung oder andere Informationen, können aufbewahrt oder Zugang zu deinem Gerät erhalten, für den Grund, der oben angegeben wird.

  • Personalisierte Werbung und Inhalte, Messungen, Einblick in das Publikum und Produkt Entwicklung.

    Werbungen und Inhalte können personalisiert werden, basierend auf ein Profil. Mehr Daten können besser personalisierte Werbungen und Inhalte hinzufügen. Werbung und Inhalte können gezeigt und gemessen werden. Einblicke über das Publikum, welche die Werbung gesehen haben und den Inhalt, können abgeleitet werden. So wie Daten können genutzt werden, um es zu verbessern oder die Benutzer Erfahrung zu verbessern das System und die Software.

Wenn du “Ich stimme zu” klickst, erlaubst du uns, die Cookies zu benutzen die Geräte Bezeichnung, den Web oder ähnliche Technologien zu benutzen. Deine Settings, können in deinem Gerät bei deinem Browser geändert werden.

Für den bestimmten Zweck, berechtigten Interessen beruhen darauf, mehr als auf den Inhalt. Du kannst mehr darüber in unseren Privaten und Cookie Politik lesen.